Location: Caltech
(34.1382°N, 118.1253°W)
Time: 00:59:28
(UTC-07:00)

CZ-2C R/B - Visible Passes

Search period start: 22 October 2014 00:00
Search period end: 01 November 2014 00:00
Orbit: 669 x 787 km, 98.1° (Epoch: 21 October)

Date Brightness Start Highest point End Pass type
(mag) Time Alt. Az. Time Alt. Az. Time Alt. Az.
22 Oct 3.0 19:15:30 10° SE 19:20:00 34° ENE 19:24:23 10° N visible
22 Oct 4.6 20:54:21 10° SSW 20:58:14 22° W 21:02:04 10° NW visible
23 Oct 4.2 18:31:31 10° E 18:32:53 11° ENE 18:34:14 10° NE visible
23 Oct 2.6 20:05:32 10° S 20:10:34 71° WSW 20:15:27 10° NNW visible
24 Oct 2.9 19:18:35 10° SE 19:23:08 36° ENE 19:27:34 10° N visible
24 Oct 4.8 20:57:44 10° SW 21:01:25 20° W 21:05:02 10° NW visible
25 Oct 4.2 18:34:12 10° E 18:36:00 12° ENE 18:37:47 10° NE visible
25 Oct 2.7 20:08:45 10° S 20:13:43 65° WSW 20:18:34 10° NNW visible
26 Oct 2.8 19:21:40 10° SE 19:26:16 39° ENE 19:30:45 10° N visible
26 Oct 4.9 21:01:09 10° SW 21:04:35 19° W 21:07:59 10° NW visible
27 Oct 4.1 18:36:58 10° E 18:39:06 13° ENE 18:41:13 10° NE visible
27 Oct 2.8 20:11:58 10° S 20:16:52 60° W 20:21:39 10° NNW visible
28 Oct 2.7 19:24:46 10° SE 19:29:24 42° ENE 19:33:55 10° N visible
28 Oct 5.0 21:04:36 10° SW 21:07:46 17° W 21:10:53 10° NW visible
29 Oct 4.0 18:39:47 10° E 18:42:12 14° ENE 18:44:36 10° NE visible
29 Oct 3.0 20:16:39 19° S 20:20:01 54° W 20:24:44 10° NNW visible
30 Oct 2.6 19:29:18 19° SE 19:32:32 45° ENE 19:37:04 10° N visible
30 Oct 5.1 21:08:47 12° WSW 21:10:55 15° W 21:13:45 10° WNW visible
31 Oct 3.9 18:42:39 10° E 18:45:18 15° ENE 18:47:55 10° NNE visible
31 Oct 3.1 20:21:17 32° SSW 20:23:09 50° W 20:27:48 10° NNW visible
